Location: Cahas Mountain Overlook
(37.0833°N, 80.1000°W)
Time: 17:30:35
(UTC-04:00)

VELOX 1 - Visible Passes

Search period start: 31 March 2023 00:00
Search period end: 10 April 2023 00:00
Orbit: 618 x 633 km, 98.4° (Epoch: 31 March)

Date Brightness Start Highest point End Pass type
(mag) Time Alt. Az. Time Alt. Az. Time Alt. Az.
31 Mar ? 05:47:29 10° E 05:49:54 15° ENE 05:52:19 10° NNE visible
31 Mar ? 20:48:26 10° NNW 20:51:29 19° WNW 20:54:31 10° WSW visible
01 Apr ? 06:05:14 10° ESE 06:08:39 23° ENE 06:12:03 10° NNE visible
01 Apr ? 21:08:31 10° NW 21:10:11 12° WNW 21:11:51 10° W visible
02 Apr ? 06:23:27 10° SE 06:27:25 36° ENE 06:31:24 10° N visible
03 Apr ? 20:08:04 10° N 20:12:16 52° WNW 20:16:27 10° SSW visible
04 Apr ? 20:27:13 10° N 20:31:02 32° WNW 20:34:52 10° SW visible
05 Apr ? 05:46:04 10° E 05:48:14 14° ENE 05:50:25 10° NE visible
05 Apr ? 20:46:35 10° NNW 20:49:45 20° WNW 20:52:56 10° WSW visible
06 Apr ? 06:03:37 10° ESE 06:06:54 21° ENE 06:10:11 10° NNE visible
06 Apr ? 21:06:25 10° NW 21:08:24 13° WNW 21:10:24 10° W visible
07 Apr ? 06:21:43 10° SE 06:25:36 33° ENE 06:29:30 10° N visible
09 Apr ? 20:25:08 10° N 20:29:03 34° WNW 20:32:57 10° SW visible
